Warwick, RI

12:13 PM EST on February 20, 2017 (GMT -0500)
Green State

Weather History for KPVD - September, 2013

Change the Weather History Date:

Monday, September 2, 2013

  Actual Average Record
Temperature  
Mean Temperature 73 °F 69 °F  
Max Temperature 76 °F 79 °F 99 °F (1953)
Min Temperature 69 °F 60 °F 47 °F (1991)
Degree Days  
Heating Degree Days 0 1  
Month to date heating degree days 0 2  
Since 1 July heating degree days 0 11  
Cooling Degree Days 8 5  
Month to date cooling degree days 19 10  
Year to date cooling degree days 841 666  
Growing Degree Days 22 (Base 50)    
Moisture  
Dew Point 71 °F    
Average Humidity 94    
Maximum Humidity 100    
Minimum Humidity 87    
Precipitation  
Precipitation 2.82 in 0.11 in 2.82 in (2013)
Month to date precipitation 3.49 0.23  
Year to date precipitation 34.30 30.83  
Snow  
Snow 0.00 in 0.00 in 0.00 in (2002)
Month to date snowfall 0.0 0.0  
Since 1 July snowfall 0.0 0.0  
Since 1 September snowfall 0.0 0.0  
Snow Depth 0.00 in    
Sea Level Pressure  
Sea Level Pressure 29.81 in    
Wind  
Wind Speed 6 mph (SSE)    
Max Wind Speed 18 mph    
Max Gust Speed 24 mph    
Visibility 3 miles    
Events Fog , Rain , Thunderstorm    
T = Trace of Precipitation, MM = Missing Value Source: NWS Daily Summary

Daily Weather History Graph

Daily Weather History Graph

Search for Another Location

Airport or City:

Trip Planner

Search our weather history database for the weather conditions in past years. The results will help you decide how hot, cold, wet, or windy it might be!

Date:

Astronomy

Sep. 02, 2013 Rise Set
Actual Time 6:12 AM EDT 7:16 PM EDT
Civil Twilight 5:44 AM EDT 7:45 PM EDT
Nautical Twilight 5:10 AM EDT 8:19 PM EDT
Astronomical Twilight 4:34 AM EDT 8:54 PM EDT
Moon 3:25 AM EDT (9/2) 5:29 PM EDT (9/2)
Length of Visible Light 14h 01m
Length of Day
13h 04m
Waning Crescent, 8% of the Moon is Illuminated
Sep 2
Waning Crescent
Sep 5
New
Sep 12
First Quarter
Sep 19
Full
Sep 26
Last Quarter

Hourly Weather History & Observations

Time (EDT) Temp. Dew Point Humidity Pressure Visibility Wind Dir Wind Speed Gust Speed Precip Events Conditions
12:36 AM 71.6 °F 71.6 °F 100% 29.88 in 2.5 mi South 5.8 mph - N/A   Overcast
12:51 AM 72.0 °F 71.1 °F 97% 29.87 in 1.8 mi South 4.6 mph - N/A   Overcast
1:51 AM 73.0 °F 72.0 °F 96% 29.85 in 1.5 mi South 6.9 mph - N/A   Overcast
2:02 AM 73.4 °F 71.6 °F 94% 29.85 in 2.5 mi South 6.9 mph - N/A   Overcast
2:11 AM 73.4 °F 71.6 °F 94% 29.84 in 4.0 mi South 4.6 mph - N/A   Overcast
2:51 AM 73.0 °F 72.0 °F 96% 29.84 in 6.0 mi South 4.6 mph - N/A   Overcast
3:51 AM 72.0 °F 71.1 °F 97% 29.83 in 2.0 mi SE 4.6 mph - N/A   Overcast
3:58 AM 71.6 °F 71.6 °F 100% 29.83 in 1.5 mi SE 5.8 mph - N/A   Overcast
4:06 AM 71.6 °F 71.6 °F 100% 29.83 in 3.0 mi SE 3.5 mph - N/A   Overcast
4:17 AM 71.6 °F 71.6 °F 100% 29.84 in 2.0 mi SSE 4.6 mph - N/A   Overcast
4:44 AM 71.6 °F 71.6 °F 100% 29.83 in 1.2 mi SSE 5.8 mph - N/A   Overcast
4:51 AM 72.0 °F 71.1 °F 97% 29.84 in 1.0 mi SSE 5.8 mph - N/A   Mist
5:12 AM 71.6 °F 71.6 °F 100% 29.84 in 2.0 mi SE 4.6 mph - 0.00 in Rain Light Rain
5:29 AM 71.6 °F 71.6 °F 100% 29.85 in 1.8 mi SSE 8.1 mph - 0.01 in Rain , Thunderstorm Rain
5:38 AM 71.6 °F 69.8 °F 94% 29.86 in 2.0 mi South 15.0 mph - 0.13 in Rain Heavy Rain
5:47 AM 69.8 °F 68.0 °F 94% 29.85 in 2.0 mi SSE 11.5 mph 24.2 mph 0.33 in Rain , Thunderstorm Heavy Thunderstorms and Rain
5:51 AM 69.1 °F 66.9 °F 93% 29.85 in 2.0 mi SE 8.1 mph 24.2 mph 0.34 in Rain , Thunderstorm Thunderstorms and Rain
5:59 AM 69.8 °F 66.2 °F 88% 29.85 in 3.0 mi SE 5.8 mph - 0.01 in Rain , Thunderstorm Light Thunderstorms and Rain
6:15 AM 69.8 °F 66.2 °F 88% 29.84 in 2.0 mi Calm Calm - 0.13 in Rain , Thunderstorm Heavy Thunderstorms and Rain
6:30 AM 69.8 °F 68.0 °F 94% 29.83 in 5.0 mi SSW 4.6 mph - 0.21 in Rain , Thunderstorm Light Thunderstorms and Rain
6:46 AM 69.8 °F 68.0 °F 94% 29.84 in 7.0 mi SW 3.5 mph - 0.21 in Rain Light Rain
6:51 AM 70.0 °F 68.0 °F 93% 29.84 in 7.0 mi Calm Calm - 0.21 in Rain Light Rain
7:15 AM 69.8 °F 68.0 °F 94% 29.85 in 10.0 mi SE 3.5 mph - 0.00 in Rain Light Rain
7:51 AM 71.1 °F 69.1 °F 93% 29.85 in 10.0 mi Calm Calm - 0.00 in   Overcast
8:15 AM 71.6 °F 69.8 °F 94% 29.84 in 10.0 mi SSE 3.5 mph - N/A   Overcast
8:51 AM 72.0 °F 70.0 °F 93% 29.84 in 10.0 mi SE 4.6 mph - N/A   Overcast
9:03 AM 71.6 °F 71.6 °F 100% 29.84 in 3.0 mi SE 4.6 mph - N/A   Overcast
9:13 AM 73.4 °F 71.6 °F 94% 29.84 in 1.5 mi SSE 5.8 mph - N/A   Overcast
9:28 AM 73.4 °F 71.6 °F 94% 29.83 in 0.8 mi SSE 8.1 mph - N/A   Overcast
9:51 AM 73.0 °F 72.0 °F 96% 29.83 in 0.5 mi SSE 10.4 mph - N/A Fog Fog
10:51 AM 73.9 °F 72.0 °F 93% 29.83 in 1.0 mi SSE 10.4 mph - N/A   Overcast
11:51 AM 73.9 °F 72.0 °F 93% 29.82 in 2.0 mi South 8.1 mph - 0.01 in Rain Light Rain
12:19 PM 75.2 °F 73.4 °F 94% 29.81 in 2.0 mi South 8.1 mph - 0.02 in Rain Light Rain
12:51 PM 75.9 °F 73.9 °F 94% 29.80 in 2.0 mi SSE 8.1 mph - 0.02 in   Overcast
1:06 PM 75.2 °F 73.4 °F 94% 29.80 in 2.0 mi SSE 6.9 mph - N/A   Overcast
1:23 PM 75.2 °F 73.4 °F 94% 29.80 in 2.0 mi Calm Calm - 0.00 in Rain Light Rain
1:29 PM 75.2 °F 73.4 °F 94% 29.80 in 0.8 mi West 4.6 mph - 0.07 in Rain Heavy Rain
1:36 PM 73.4 °F 71.6 °F 94% 29.81 in 1.5 mi WNW 8.1 mph - 0.27 in Rain , Thunderstorm Heavy Thunderstorms and Rain
1:51 PM 73.0 °F 72.0 °F 96% 29.81 in 1.2 mi West 6.9 mph - 1.15 in Rain , Thunderstorm Heavy Thunderstorms and Rain
2:18 PM 69.8 °F 66.2 °F 88% 29.81 in 0.8 mi Variable 6.9 mph - 0.80 in Rain , Thunderstorm Heavy Thunderstorms and Rain
2:23 PM 69.8 °F 66.2 °F 88% 29.81 in 2.0 mi Calm Calm - 0.97 in Rain , Thunderstorm Heavy Thunderstorms and Rain
2:32 PM 69.8 °F 68.0 °F 94% 29.80 in 2.0 mi ESE 3.5 mph - 1.00 in Rain , Thunderstorm Thunderstorms and Rain
2:44 PM 69.8 °F 68.0 °F 94% 29.79 in 4.0 mi SSE 6.9 mph - 1.03 in Rain , Thunderstorm Thunderstorms and Rain
2:51 PM 70.0 °F 69.1 °F 97% 29.78 in 6.0 mi SSE 8.1 mph - 1.04 in Rain Light Rain
3:51 PM 73.0 °F 71.1 °F 93% 29.77 in 10.0 mi WSW 4.6 mph - 0.05 in Rain Light Rain
4:51 PM 73.9 °F 71.1 °F 91% 29.76 in 10.0 mi SSE 5.8 mph - 0.00 in   Overcast
5:51 PM 73.0 °F 70.0 °F 90% 29.74 in 7.0 mi SSE 11.5 mph - N/A   Overcast
6:03 PM 73.4 °F 71.6 °F 94% 29.73 in 5.0 mi SSE 11.5 mph - N/A   Overcast
6:42 PM 73.4 °F 71.6 °F 94% 29.74 in 1.0 mi South 9.2 mph - N/A   Overcast
6:51 PM 73.0 °F 71.1 °F 93% 29.73 in 1.0 mi South 9.2 mph - N/A   Overcast
7:51 PM 73.0 °F 72.0 °F 96% 29.74 in 1.5 mi South 5.8 mph - N/A   Overcast
8:46 PM 71.6 °F 71.6 °F 100% 29.74 in 2.5 mi SSE 6.9 mph - N/A   Overcast
8:51 PM 72.0 °F 71.1 °F 97% 29.74 in 2.5 mi SSE 9.2 mph - N/A   Overcast
9:40 PM 71.6 °F 71.6 °F 100% 29.76 in 1.8 mi SSE 5.8 mph - N/A   Overcast
9:49 PM 71.6 °F 71.6 °F 100% 29.76 in 3.0 mi South 3.5 mph - N/A   Overcast
9:51 PM 72.0 °F 71.1 °F 97% 29.76 in 3.0 mi South 3.5 mph - N/A   Overcast
10:29 PM 71.6 °F 71.6 °F 100% 29.77 in 3.0 mi Calm Calm - N/A   Overcast
10:51 PM 72.0 °F 71.1 °F 97% 29.76 in 4.0 mi South 4.6 mph - N/A   Overcast
11:26 PM 71.6 °F 71.6 °F 100% 29.76 in 4.0 mi SSW 5.8 mph - 0.00 in   Light Drizzle
11:51 PM 72.0 °F 71.1 °F 97% 29.75 in 5.0 mi South 3.5 mph - 0.00 in   Mostly Cloudy